User: anonymous   Login
Location: Unspecified
(0.0000°N, 0.0000°E)
Time: 04:44:32
(UTC+00:00)
Language:

Granat - Orbit

View from above orbital plane
View from above orbital plane
View from above satellite
View from above satellite

Ground track
Ground track

The orbit data is extracted from the following two-line orbital elements,

1 20352U 89096A   99141.75000000  .00000000  00000-0  00000+0 0  9157
2 20352  48.7873 283.4465 9390426  21.8293 352.6408  0.24428860 11724
Epoch (UTC): 21 May 1999 18:00:00
Eccentricity: 0.9390426
inclination: 48.7873°
perigee height: 211 km
apogee height: 203220 km
right ascension of ascending node: 283.4465°
argument of perigee: 21.8293°
revolutions per day: 0.24428860
mean anomaly at epoch: 352.6408°
orbit number at epoch: 1172

The dashed part of the orbit path shows where the satellite is in the earth's shadow,  

DLR